User: anonymous   Login
Location: State Camp
(41.2367°N, 77.7828°W)
Time: 03:29:38
(UTC-05:00)
Language:

Cosmos 1674 Rocket - Orbit

View from above orbital plane
View from above orbital plane
View from above satellite
View from above satellite

Ground track
Ground track

The orbit data is extracted from the following two-line orbital elements,

1 15945U 85069B   16339.47910383  .00000108  00000-0  10080-4 0  9991
2 15945  82.5265 315.3528 0019151 200.5307 159.5141 14.83897603692153
Epoch (UTC): 04 December 2016 11:29:54
Eccentricity: 0.0019151
inclination: 82.5265°
perigee height: 603 km
apogee height: 630 km
right ascension of ascending node: 315.3528°
argument of perigee: 200.5307°
revolutions per day: 14.83897603
mean anomaly at epoch: 159.5141°
orbit number at epoch: 69215

The dashed part of the orbit path shows where the satellite is in the earth's shadow,  

DLR